Content
SEND FEEDBACK

Daily
Averages
Monthly
Summary
United States of America

WILMINGTON, NORTH CAROLINA


Home > North America > United States > North Carolina
Elevation: 72 feet     Latitude: 34 16N     Longitude: 077 54W

WEATHER
 
SELECT A DAY
Number of Records: 208,780;   Date Range: 1/1/95 - 7/26/14
 
SHARE

PRINT THIS DATA

[ ← Previous Day ]
WEATHER ALMANAC - JULY 11, 2013
[ Next Day → ]
[ °C ]   °F
Weather ElementAverageHighLow
Temperature79.7 °F87.1 °F (3:53 pm)75 °F (1:53 am)
Dewpoint72.7 °F75 °F (10:53 am)70 °F (2:53 pm)
Humidity79.6 %94 % (1:53 am)59 % (2:53 pm)
Barometer29.96 in30.01 in (7:53 am)29.91 in (4:53 pm)
Wind Speed7.3 mph15 mph (5:53 pm)
Wind Gust21.9 mph (1:43 pm)
Weather ElementAverage
Visibility8.9 mi
Wind DirectionSSW (199.3 °)

Weather ElementTotal
Precipitation0.56 in
Cooling Degree Days16.1 (Base 65)
Growing Degree Days31.1 (Base 50)
Averaged from 27 records on July 11, 2013
WEATHER CONDITIONS BREAKOUT
WIND DIRECTION BREAKOUT
WEATHER BY HOUR - JULY 11, 2013
[ °C ]   °F
Local TimeTemperatureDewpointHumidityBarometerVisibilityWind DirectionWind SpeedGust SpeedPrecipitationEventsConditions
1:53 AM75.0 °F73.0 °F94 %29.99 in10.0 miCalm0.00 inPartly Cloudy
2:53 AM75.0 °F73.0 °F94 %29.99 in10.0 miSouth (190°)3.5 mphScattered Clouds
3:03 AM75.2 °F73.4 °F94 %29.98 in10.0 miSW (230°)3.5 mphPartly Cloudy
3:53 AM75.0 °F72.0 °F90 %29.98 in10.0 miSSW (210°)5.8 mphClear
4:53 AM75.9 °F72.0 °F87 %29.98 in10.0 miSW (220°)6.9 mphPartly Cloudy
5:53 AM75.0 °F72.0 °F90 %29.99 in10.0 miWSW (240°)3.5 mph0.01 inClear
6:53 AM75.0 °F72.0 °F90 %30.00 in10.0 miCalmClear
7:53 AM79.0 °F73.0 °F82 %30.01 in10.0 miSW (220°)4.6 mphClear
8:53 AM81.0 °F73.0 °F77 %30.01 in10.0 miWSW (240°)8.1 mphPartly Cloudy
9:53 AM79.0 °F73.9 °F84 %30.00 in10.0 miSSE (150°)3.5 mph0.00 inRainLight Rain
10:53 AM82.0 °F75.0 °F79 %29.99 in10.0 miSouth (190°)5.8 mph0.01 inRainLight Rain
11:53 AM82.9 °F73.9 °F74 %29.99 in10.0 miSW (230°)8.1 mph0.01 inScattered Clouds
12:45 PM82.4 °F73.4 °F74 %29.98 in2.0 miSouth (180°)9.2 mph0.10 inRainLight Rain
12:53 PM82.0 °F73.0 °F74 %29.98 in10.0 miSSW (200°)6.9 mph0.10 inMostly Cloudy
1:43 PM78.8 °F73.4 °F83 %29.98 in1.2 miWest (260°)13.8 mph21.9 mph0.05 inRainHeavy Rain
1:51 PM78.8 °F73.4 °F83 %29.97 in2.0 miNW (320°)4.6 mph0.14 inRainLight Rain
1:53 PM78.1 °F73.0 °F84 %29.97 in5.0 miNW (320°)3.5 mph0.14 inRainLight Rain
2:53 PM86.0 °F70.0 °F59 %29.94 in10.0 miSSW (210°)11.5 mph20.7 mph0.00 inMostly Cloudy
3:53 PM87.1 °F71.1 °F59 %29.92 in10.0 miSSW (210°)13.8 mphPartly Cloudy
4:53 PM86.0 °F71.1 °F61 %29.91 in10.0 miSSW (210°)13.8 mph19.6 mphPartly Cloudy
5:53 PM84.0 °F72.0 °F67 %29.92 in10.0 miSSW (210°)15.0 mphScattered Clouds
6:53 PM82.9 °F72.0 °F69 %29.91 in10.0 miSSW (200°)11.5 mphPartly Cloudy
7:53 PM81.0 °F72.0 °F74 %29.92 in10.0 miSSW (200°)10.4 mphPartly Cloudy
8:53 PM79.0 °F73.0 °F82 %29.93 in10.0 miSouth (180°)6.9 mphClear
9:53 PM79.0 °F73.0 °F82 %29.92 in10.0 miSouth (180°)6.9 mphClear
10:53 PM79.0 °F73.0 °F82 %29.94 in10.0 miSouth (180°)6.9 mphClear
11:53 PM79.0 °F73.0 °F82 %29.94 in10.0 miSSW (200°)8.1 mphClear
Hourly data recorded from KILM, located miles away from Wilmington, North Carolina







STORIES FROM OUR PARTNERS